Regional Weather Roundup
Issued by NWS Albany, NY

Home | Current Version | Previous Version | Text Only | Print | Product List | Glossary On
Versions: 1 2 3 4 5 6 7 8 9 10 11 12 13 14 15 16 17 18 19 20 21 22 23 24 25 26 27 28 29 30 31 32 33 34 35 36 37 38 39 40 41 42 43 44 45 46 47 48 49 50
000
ASUS41 KALY 231310
RWRALY

NEW YORK STATE HOURLY WEATHER ROUNDUP
NATIONAL WEATHER SERVICE ALBANY NY
800 AM EST SUN NOV 23 2014

NOTE: "FAIR" INDICATES FEW OR NO CLOUDS BELOW 12,000 FEET WITH NO
SIGNIFICANT WEATHER AND/OR NO OBSTRUCTIONS TO VISIBILITY.

NYZ032-033-038>043-046>054-057>066-NYZ062>081-231400-
EAST


CITY           SKY/WX    TMP DP  RH WIND       PRES   REMARKS
ALBANY         CLOUDY    42  27  55 S7        30.12R
GLENS FALLS    CLOUDY    37  32  82 SE5       30.11R WCI  33
POUGHKEEPSIE   MOCLDY    44  21  40 S6        30.17R
NEWBURGH       MOCLDY    41  21  45 W9        30.18R
MONTGOMERY     MOCLDY    41  21  44 SW9       30.17R
WHITE PLAINS   MOCLDY    42  21  43 W6        30.18R
ISLIP          PTSUNNY   45  25  45 SW12      30.21R
NEW YORK CITY  PTSUNNY   44  22  41 SW9       30.22R
CENTRAL PARK   CLOUDY    44  21  40 W9        30.23R
$$

NYZ005>009-017-018-044>046-055-056-231400-
CENTRAL


CITY           SKY/WX    TMP DP  RH WIND       PRES   REMARKS
FULTON         CLOUDY    44  38  79 S6        30.05R
SYRACUSE       CLOUDY    50  39  66 S9        30.06R
ROME           CLOUDY    41  38  89 E7        30.09R
ELMIRA         CLOUDY    43  37  79 CALM      30.10R
BINGHAMTON     CLOUDY    42  28  57 SW8       30.09R
MONTICELLO     PTCLDY    34  25  69 CALM      30.15R
$$

NYZ026>034-041>043-231400-
NORTH


CITY           SKY/WX    TMP DP  RH WIND       PRES   REMARKS
WATERTOWN      CLOUDY    45  39  79 CALM      30.03R
FORT DRUM      NOT AVBL
MASSENA        FOG       41  41 100 SW5       30.03R VSB 1/2
SARANAC LAKE   CLOUDY    39  38  96 SW7       29.99R FOG     WCI  34
PLATTSBURGH    CLOUDY    40  37  89 SW3       30.03R
$$

NYZ001>004-010>016-019>021-231400-
WEST


CITY           SKY/WX    TMP DP  RH WIND       PRES   REMARKS
NIAGARA FALLS  CLOUDY    47  38  71 SW12      30.01R
BUFFALO        CLOUDY    45  35  68 S7        30.02R
DUNKIRK        CLOUDY    47  33  58 S16G25    30.03R
JAMESTOWN      CLOUDY    39  32  75 S8        30.05S WCI  34
WELLSVILLE     MOCLDY    44  31  60 SW10      30.08R
ROCHESTER      CLOUDY    46  39  76 SW7       30.04R
PENN YAN       CLOUDY    48  37  65 S6        30.07R
$$

             KEY
       WCI = WIND CHILL INDEX
       VSB = VISIBILITY
       HX  = HEAT INDEX
$$



USA.gov is the U.S. government's official web portal to all federal, state and local government web resources and services.